Regional Weather Roundup
Issued by NWS

Home | Current Version | Previous Version | Graphics & Text | Print | Product List | Glossary On
Versions: 1 2 3 4 5 6 7 8 9 10 11 12 13 14 15 16 17 18 19 20 21 22 23 24 25 26 27 28 29 30 31 32 33 34 35 36 37 38 39 40 41 42 43 44 45 46 47 48 49 50
000
ASUS45 KTFX 281119
RWRMT
MONTANA HOURLY WEATHER ROUNDUP
NATIONAL WEATHER SERVICE GREAT FALLS MT
419 AM MST WED JAN 28 2015

NOTE: "FAIR" INDICATES FEW OR NO CLOUDS BELOW 12000 FEET WITH NO
SIGNIFICANT WEATHER AND/OR OBSTRUCTIONS TO VISIBILITY.

* THESE STATIONS ARE NOT UNDER NWS QUALITY CONTROL. THEY DO NOT
   REPORT WEATHER SUCH AS PRECIPITATION OR FOG.

MTZ001>007-043-281200-
WEST OF THE DIVIDE
CITY           SKY/WX    TMP DP  RH WIND       PRES   REMARKS
KALISPELL      FOG       14  12  92 W3        30.11R VSB M1/4
MISSOULA       FOG       27  25  92 CALM      30.15R
BUTTE          MOCLDY    30  27  89 CALM      30.08R
MULLAN PASS    FOG       28  28 100 VRB3      30.13R VSB M1/4
* ANACONDA     MOCLDY    37  28  70 N3         N/A
* ESSEX        N/A       26  24  92 S2         N/A
* EUREKA APT   CLEAR     28  25  89 CALM      30.11R
* HAMILTON APT MOCLDY    37  28  70 S2        30.13R
* LIBBY APT    CLEAR     25  25 100 CALM      30.18R VSB 1/2
* LINCOLN      N/A       37  24  59 W3G8       N/A
* LOOKOUT PASS N/A       32  32 100 N6         N/A   WCI  26
* POLSON       N/A       36  26  67 E1         N/A
* RONAN APT    MOCLDY    37  37 100 N/A        N/A
* SEELEY LAKE  N/A       20  18  92 NE1        N/A
* THOMP F APT  PTCLDY    32  31  96 N/A        N/A
* YAAK HILL    N/A       32  30  92 N/A        N/A
$$

MTZ008-052>055-281200-
SOUTHWEST MONTANA
CITY           SKY/WX    TMP DP  RH WIND       PRES   REMARKS
BOZEMAN        CLOUDY    37  30  76 CALM      30.07R
DILLON         CLOUDY    39  32  76 S13       30.07R WCI  31
* W YELLOWSTON CLOUDY    32  31  96 SW1        N/A
* THREE FORKS  CLOUDY    41  41 100 N/A        N/A
* BOULDER HILL N/A       39  21  48 SW3        N/A
* MONIDA PASS  N/A       31  31 100 SE5        N/A   WCI  26
* RAYNOLDS PAS N/A       31  15  51 S12        N/A   WCI  22
* WHITEHALL    N/A       42  33  71 SW9G15     N/A
* WISE RIVER   N/A       31  27  85 W6         N/A   WCI  25
$$

MTZ009>010-012-014-046-048-049-054-281200-
EAST SLOPES AND CENTRAL MONTANA
CITY           SKY/WX    TMP DP  RH WIND       PRES   REMARKS
CUT BANK       PTCLDY    37  25  62 W16       29.97R WCI  28
GREAT FALLS    CLOUDY    45  28  51 W14       29.97R
HELENA         CLOUDY    39  28  65 SW6       30.04R WCI  35
MALMSTROM AFB  CLOUDY    48  27  44 SW15      29.97R
* CONRAD       MOCLDY    45  27  49 CALM       N/A
* DEARBORN     N/A       52  22  31 S12G17     N/A
* EAST GLACIER N/A       38  23  55 N7G14      N/A   WCI  33
* MONARCH      N/A       44  17  34 W14G23     N/A
* PENDROY      N/A       39  23  53 NW10       N/A   WCI  32
* ROGERS PASS  N/A       39  22  51 E9G18      N/A   WCI  33
* SWEET GRASS  N/A       37  24  59 NW14G20    N/A   WCI  28
* WHITE SULPH  N/A       39  27  62 E3         N/A
$$

MTZ011-013-016-021-035-040-045-047-050-051-281200-
NORTH CENTRAL MONTANA
CITY           SKY/WX    TMP DP  RH WIND       PRES   REMARKS
HAVRE          MOCLDY    36  27  70 W9        29.91R WCI  29
LEWISTOWN      CLOUDY    41  28  60 W7        29.93R
* N BAR RANCH  CLOUDY    50  23  35 W6        29.91R
* CHINOOK      PTCLDY    36  28  73 W17G25    29.90R WCI  26
* CHESTER      N/A       39  28  65 NW15G22    N/A   WCI  31
* DENTON       N/A       48  28  46 W15G20     N/A
* GEYSER       N/A       45  22  40 W14        N/A
* JUDITH GAP   N/A       44  25  47 E8         N/A
* LOMA         N/A       45  28  51 SW10G15    N/A
$$

MTZ017>020-022>027-061-062-281200-
NORTHEAST MONTANA
CITY           SKY/WX    TMP DP  RH WIND       PRES   REMARKS
GLASGOW        CLEAR     36  28  73 W8        29.78R WCI  30
GLENDIVE       CLOUDY    34  30  85 SW6       29.79S WCI  29
JORDAN         CLOUDY    39  30  70 W8        29.83R WCI  33
SIDNEY         CLOUDY    34  30  85 S3        29.77R
WOLF POINT     MOCLDY    37  32  82 SW8       29.77R WCI  31
* BEAVER HILL  N/A       41  32  70 SW10G15    N/A
* CIRCLE       N/A       39  32  76 N/A        N/A
* LINDSAY DVD  N/A       47  29  50 W18G23     N/A
* NAVAJO       N/A       38  31  76 W10        N/A   WCI  31
* PLENTYWOOD A PTCLDY    32  30  92 W3        29.73R
* POPLAR APT   MOCLDY    36  32  85 N/A       29.76R
* SACO         N/A       40  30  68 W8         N/A   WCI  35
$$

MTZ028>042-056>058-281200-
SOUTHCENTRAL AND SOUTHEAST MONTANA
CITY           SKY/WX    TMP DP  RH WIND       PRES   REMARKS
BAKER          CLOUDY    39  30  70 NW7       29.80R WCI  34
BILLINGS       CLOUDY    48  30  50 SW12      29.92R
LIVINGSTON     CLOUDY    48  34  59 SW21G30   30.01R
MILES CITY     CLOUDY    37  30  76 S3        29.83R
* BIG TIMBER A CLOUDY    48  34  59 SW26G32   29.98R
* FORSYTH APT  CLOUDY    43  32  65 SW7       29.87R
* LAUREL APT   CLOUDY    45  28  51 SW6        N/A
* ROUNDUP APT  CLOUDY    48  28  46 S6         N/A
* ALZADA       N/A       39  31  73 W8         N/A   WCI  33
* HYSHAM       N/A       44  27  51 W6         N/A
* REED POINT   N/A       54  31  42 W16G26     N/A
* ROSCOE HILL  N/A       49  22  35 SW9G16     N/A
$$

REGIONAL REPORTS...DAKOTAS
CITY           SKY/WX    TMP DP  RH WIND       PRES   REMARKS
WILLISTON      MOCLDY    30  28  92 S3        29.73S
DICKINSON      MOCLDY    36  30  79 W8        29.71S WCI  30
BEACH          MOCLDY    39  34  82 W13       29.77S WCI  31
CROSBY         CLEAR     28  28 100 E8        29.74S WCI  20
TIOGA          CLEAR     27  27 100 SE3       29.74F
WATFORD CITY   CLEAR     32  32 100 CALM      29.72R
BISMARCK       PTCLDY    27  27 100 CALM      29.73F
GRAND FORKS    FOG       34  32  92 S10       29.80F WCI  26
FARGO          CLOUDY    34  30  85 S18G29    29.82F WCI  23
BUFFALO SD     CLOUDY    37  30  76 W13       29.72R WCI  29
RAPID CITY     MOCLDY    43  27  53 NW9       29.76F
$$

REGIONAL REPORTS...WYOMING/IDAHO/WASHINGTON
CITY           SKY/WX    TMP DP  RH WIND       PRES   REMARKS
GILLETTE       CLOUDY    45  28  51 W10       29.88S
SHERIDAN       CLOUDY    52  32  47 W14G23    29.91R
CODY           CLOUDY    46  30  54 W5        29.99R
YELLOWSTONE LA CLOUDY    30  28  92 CALM      30.13R
SALMON         CLOUDY   N/A N/A N/A CALM      30.19R VSB 3
MULLAN PASS    FOG       28  28 100 VRB3      30.13S VSB M1/4
SAND POINT     FOG      N/A N/A N/A NE3       30.22R VSB 2 1/2
SPOKANE        FOG       32  32 100 CALM      30.22R VSB 1/2
$$

REGIONAL REPORTS...ALBERTA
CITY           SKY/WX    TMP DP  RH WIND       PRES   REMARKS
CALGARY        FAIR      32  28  85 N9        30.02R WCI  24
MEDICINE HAT   FOG       28  28 100 NW7       30.00R WCI  21
EDMONTON       FOG       30  30 100 W8        30.00R VSB 1/4  WCI  22
WATERTON GATE  N/A       39  21  48 SW14G20    N/A   WCI  31
CARDSTON       N/A       39  23  53 W9         N/A   WCI  33
MILK RIVER     N/A       32  30  92 NW12       N/A   WCI  23
$$

REGIONAL REPORTS...SASKATCHEWAN
CITY           SKY/WX    TMP DP  RH WIND       PRES   REMARKS
SWIFT CURRENT  FOG       30  28  92 NW15      29.83R VSB M1/4 WCI  19
MOOSE JAW      FOG       28  28 100 NE3       29.80R VSB 1/2
REGINA         FOG       28  27  96 E15       29.79R WCI  16
VAL MARIE      N/A       34  28  79 W2         N/A
ASSINIBOIA     N/A       27  25  92 NW8        N/A   WCI  19
CORONACH       N/A       30  27  89 NW3        N/A

$$



USA.gov is the U.S. government's official web portal to all federal, state and local government web resources and services.